Regional Weather Roundup
Issued by NWS Mt. Holly, NJ

Current Version | Previous Version | Text Only | Print | Product List | Glossary On
Versions: 1 2 3 4 5 6 7 8 9 10 11 12 13 14 15 16 17 18 19 20 21 22 23 24 25 26 27 28 29 30 31 32 33 34 35 36 37 38 39 40 41 42 43 44 45 46 47 48 49 50
000
ASUS41 KPHI 032012
RWRPHI

REGIONAL WEATHER ROUNDUP
NATIONAL WEATHER SERVICE MOUNT HOLLY NJ
400 PM EDT FRI JUL 03 2015

NOTE:  "FAIR" INDICATES FEW OR NO CLOUDS BELOW 12,000 FEET WITH NO
SIGNIFICANT WEATHER AND/OR OBSTRUCTIONS TO VISIBILITY.

 * = STATION DOES NOT REPORT PRECIPITATION (E.G. RAIN, SNOW, ETC.)
        OR FOG.

NJZ015>026-032100-
SOUTHERN NEW JERSEY

CITY           SKY/WX    TMP DP  RH WIND       PRES   REMARKS
POMONA         PTSUNNY   77  60  55 S8        29.98F
RIO GRANDE*    PTSUNNY   77  63  61 SE8       29.99F
MILLVILLE      PTSUNNY   78  64  61 S8        29.97F
WRIGHTSTOWN    PTSUNNY   81  63  53 S9        29.94F
MOUNT HOLLY    PTSUNNY   79  60  52 CALM      29.96F
TRENTON        PTSUNNY   79  58  48 SW5       29.96F

$$
NJZ001>014-032100-
NORTHERN NEW JERSEY

CITY           SKY/WX    TMP DP  RH WIND       PRES   REMARKS
SUSSEX         SUNNY     78  53  41 W5        29.97F
ANDOVER*         N/A     78  55  44 CALM      29.98F
MORRISTOWN     PTSUNNY   81  57  44 NW3       29.97F
NEWARK         PTSUNNY   82  53  36 VRB5      29.95F
TETERBORO      SUNNY     82  52  35 NW6       29.95F
CALDWELL       MOSUNNY   81  51  35 N3        29.96F
SOMERVILLE     PTSUNNY   82  55  39 CALM      29.95F
ALLAIRE*       PTSUNNY   75  57  53 SE8       29.98F
TOMS RIVER*    PTSUNNY   79  61  53 SE8       29.98F

$$
PAZ043-044-047-054-055-060>062-066>071-032100-
EASTERN PENNSYLVANIA

CITY           SKY/WX    TMP DP  RH WIND       PRES   REMARKS
PHILADELPHIA   PTSUNNY   80  60  50 S6        29.97S
NORTH PHILA    PTSUNNY   81  57  43 VRB5      29.98F
BLUE BELL      PTSUNNY   79  61  53 CALM      29.97S
DOYLESTOWN     PTSUNNY   77  59  53 CALM      29.97F
QUAKERTOWN*    PTSUNNY   79  59  50 SW5       29.98F
POTTSTOWN      PTSUNNY   78  60  53 S7        29.98F
LANCASTER      CLOUDY    76  62  62 S7        29.96F
COATESVILLE    CLOUDY    75  63  64 S3        29.99F
READING        CLOUDY    80  60  50 E5        29.95F
ALLENTOWN      PTSUNNY   81  57  43 VRB6      29.96F
MOUNT POCONO   MOSUNNY   74  52  46 S6        30.02S
HAZLETON       PTSUNNY   73  57  56 MISG      30.03F
WILKES BARRE   MOSUNNY   79  53  40 CALM      29.97F

$$
DEZALL-MDZ008-012-015-019-020-032100-
DELAWARE AND EASTERN MARYLAND

CITY           SKY/WX    TMP DP  RH WIND       PRES   REMARKS
WILMINGTON     PTSUNNY   78  62  57 SE9       29.97F
DOVER          PTSUNNY   77  64  65 E9        29.95F
GEORGETOWN     MOSUNNY   79  63  57 E10       29.98S
EASTON         MOSUNNY   81  66  61 W7        30.00F
PATUXENT       CLOUDY    78  62  57 SE9       29.96F
OCEAN CITY     SUNNY     76  65  68 E8        29.98F
WALLOPS ISLAND MOSUNNY   78  64  61 E10       29.98F
CAMBRIDGE      CLOUDY    79  63  57 S3        29.95F
SALISBURY      MOSUNNY   79  62  56 SE8       29.97F

$$
PAZ001-021-NYZ056-072-MDZ011-DCZ001-032100-
OTHER NEARBY LOCATIONS

CITY           SKY/WX    TMP DP  RH WIND       PRES   REMARKS
HARRISBURG     CLOUDY    79  65  62 SE7       29.95F
STATE COLLEGE  MOSUNNY   75  61  60 SW7       29.98F
WILLIAMSPORT   MOSUNNY   78  57  48 CALM      29.95F
BINGHAMTON     MOSUNNY   71  49  45 MISG      30.00F
NEW YORK CITY  SUNNY     80  53  39 CALM      29.99F
BALTIMORE      CLOUDY    79  56  45 SE6       29.95F
WASHINGTON DC  CLOUDY    82  62  50 S9        29.95F

$$



USA.gov is the U.S. government's official web portal to all federal, state and local government web resources and services.